| time (UTC) | temp F | wind direction | speed MPH | gust MPH | rain 1hr in | rain 24hr in | rain mn in | humidity % | barometer mb |
| 20260506071002 | 51 | 135 | 1.0 | 3.0 | 0.00 | 0.07 | 0.00 | 74 | 1018.3 |
| 20260506070502 | 52 | 136 | 0.0 | 2.0 | 0.00 | 0.07 | 0.00 | 73 | 1018.3 |
| 20260506062448 | 54 | 230 | 6.0 | 14.0 | 0.00 | 0.08 | 0.07 | 67 | 1017.9 |
| 20260506061948 | 54 | 210 | 7.0 | 11.0 | 0.00 | 0.08 | 0.07 | 67 | 1018.1 |
| 20260506061448 | 54 | 223 | 7.0 | 11.0 | 0.00 | 0.08 | 0.07 | 67 | 1017.8 |
| 20260506060947 | 54 | 266 | 7.0 | 10.0 | 0.00 | 0.08 | 0.07 | 66 | 1017.6 |
| 20260506060450 | 55 | 229 | 6.0 | 9.0 | 0.00 | 0.08 | 0.07 | 66 | 1017.5 |
| 20260506050947 | 56 | 169 | 4.0 | 11.0 | 0.00 | 0.08 | 0.07 | 65 | 1016.7 |
| 20260506050731 | 56 | 140 | 3.0 | 7.0 | 0.00 | 0.08 | 0.07 | 65 | 1016.6 |
| 20260506044944 | 57 | 159 | 5.0 | 8.0 | 0.00 | 0.09 | 0.07 | 62 | 1016.6 |
| 20260506044447 | 57 | 174 | 5.0 | 8.0 | 0.00 | 0.09 | 0.07 | 62 | 1016.7 |
| 20260506044238 | 57 | 160 | 7.0 | 12.0 | 0.00 | 0.09 | 0.07 | 62 | 1016.6 |
| 20260506043441 | 57 | 125 | 6.0 | 12.0 | 0.00 | 0.09 | 0.07 | 62 | 1016.3 |
| 20260506042940 | 57 | 153 | 4.0 | 7.0 | 0.00 | 0.09 | 0.07 | 62 | 1016.3 |
| 20260506042441 | 58 | 163 | 4.0 | 7.0 | 0.00 | 0.09 | 0.07 | 60 | 1016.2 |
| 20260506041940 | 58 | 180 | 4.0 | 7.0 | 0.00 | 0.09 | 0.07 | 59 | 1016.2 |
| 20260506041726 | 58 | 165 | 2.0 | 7.0 | 0.00 | 0.09 | 0.07 | 58 | 1016.1 |
| 20260506040941 | 58 | 182 | 2.0 | 6.0 | 0.00 | 0.09 | 0.07 | 57 | 1016.0 |
| 20260506040442 | 58 | 227 | 4.0 | 9.0 | 0.00 | 0.09 | 0.07 | 58 | 1016.0 |
| 20260506035941 | 58 | 173 | 5.0 | 10.0 | 0.00 | 0.09 | 0.07 | 59 | 1016.0 |
| 20260506035437 | 59 | 200 | 6.0 | 12.0 | 0.00 | 0.09 | 0.07 | 60 | 1015.7 |
| 20260506034936 | 59 | 223 | 5.0 | 12.0 | 0.00 | 0.09 | 0.07 | 59 | 1015.6 |
| 20260506034435 | 59 | 220 | 4.0 | 8.0 | 0.00 | 0.10 | 0.07 | 60 | 1015.5 |
| 20260506033935 | 59 | 229 | 4.0 | 13.0 | 0.00 | 0.10 | 0.07 | 59 | 1015.5 |
| 20260506033434 | 60 | 230 | 4.0 | 13.0 | 0.00 | 0.10 | 0.07 | 58 | 1015.5 |
| 20260506032935 | 60 | 191 | 4.0 | 9.0 | 0.00 | 0.10 | 0.07 | 57 | 1015.4 |
| 20260506032432 | 60 | 215 | 5.0 | 10.0 | 0.00 | 0.10 | 0.07 | 55 | 1015.4 |
| 20260506031931 | 60 | 240 | 5.0 | 10.0 | 0.00 | 0.10 | 0.07 | 54 | 1015.3 |
| 20260506031535 | 59 | 234 | 5.0 | 9.0 | 0.00 | 0.10 | 0.07 | 55 | 1015.3 |
| 20260506031517 | 60 | 232 | 6.0 | 10.0 | 0.00 | 0.10 | 0.07 | 54 | 1015.3 |
| 20260506030430 | 59 | 267 | 4.0 | 7.0 | 0.00 | 0.10 | 0.07 | 56 | 1015.2 |
| 20260506025933 | 59 | 250 | 4.0 | 6.0 | 0.00 | 0.10 | 0.07 | 56 | 1015.0 |
| 20260506025429 | 59 | 229 | 4.0 | 7.0 | 0.00 | 0.10 | 0.07 | 57 | 1015.2 |
| 20260506024929 | 60 | 217 | 5.0 | 8.0 | 0.00 | 0.10 | 0.07 | 55 | 1015.2 |
| 20260506024722 | 60 | 268 | 5.0 | 8.0 | 0.00 | 0.10 | 0.07 | 55 | 1015.0 |
| 20260506023922 | 60 | 285 | 4.0 | 8.0 | 0.00 | 0.10 | 0.07 | 57 | 1014.9 |
| 20260506023415 | 60 | 230 | 3.0 | 6.0 | 0.00 | 0.10 | 0.07 | 57 | 1014.9 |
| 20260506022910 | 60 | 252 | 4.0 | 7.0 | 0.00 | 0.11 | 0.07 | 56 | 1014.8 |
| 20260506022409 | 61 | 224 | 4.0 | 7.0 | 0.00 | 0.11 | 0.07 | 55 | 1014.7 |
| 20260506021910 | 61 | 240 | 4.0 | 7.0 | 0.00 | 0.11 | 0.07 | 54 | 1014.7 |
| 20260506021410 | 62 | 225 | 4.0 | 7.0 | 0.00 | 0.11 | 0.07 | 53 | 1014.6 |
| 20260506020909 | 62 | 194 | 5.0 | 9.0 | 0.00 | 0.11 | 0.07 | 51 | 1014.6 |
| 20260506020704 | 63 | 182 | 5.0 | 10.0 | 0.00 | 0.11 | 0.07 | 50 | 1014.5 |
| 20260506015908 | 63 | 186 | 5.0 | 10.0 | 0.00 | 0.11 | 0.07 | 50 | 1014.5 |
| 20260506015408 | 63 | 178 | 6.0 | 10.0 | 0.00 | 0.11 | 0.07 | 50 | 1014.5 |
| 20260506015017 | 63 | 108 | 6.0 | 12.0 | 0.00 | 0.12 | 0.07 | 50 | 1014.4 |
| 20260506014956 | 63 | 202 | 6.0 | 12.0 | 0.00 | 0.11 | 0.07 | 51 | 1014.5 |
| 20260506013905 | 63 | 163 | 5.0 | 10.0 | 0.00 | 0.12 | 0.07 | 50 | 1014.4 |
| 20260506013405 | 64 | 173 | 4.0 | 9.0 | 0.00 | 0.12 | 0.07 | 50 | 1014.5 |
| 20260506012905 | 63 | 169 | 5.0 | 9.0 | 0.00 | 0.12 | 0.07 | 50 | 1014.5 |
| 20260506012655 | 64 | 154 | 6.0 | 9.0 | 0.00 | 0.12 | 0.07 | 48 | 1014.5 |
| 20260506011902 | 64 | 182 | 6.0 | 10.0 | 0.00 | 0.12 | 0.07 | 49 | 1014.4 |
| 20260506011403 | 64 | 169 | 6.0 | 10.0 | 0.00 | 0.12 | 0.07 | 48 | 1014.5 |
| 20260506010902 | 65 | 192 | 5.0 | 11.0 | 0.00 | 0.12 | 0.07 | 48 | 1014.5 |
| 20260506010401 | 64 | 171 | 6.0 | 11.0 | 0.00 | 0.12 | 0.07 | 49 | 1014.5 |
| 20260506005902 | 64 | 167 | 6.0 | 10.0 | 0.00 | 0.12 | 0.07 | 49 | 1014.4 |
| 20260506005401 | 64 | 194 | 6.0 | 11.0 | 0.00 | 0.13 | 0.07 | 50 | 1014.4 |
| 20260506004901 | 65 | 147 | 6.0 | 11.0 | 0.00 | 0.13 | 0.07 | 49 | 1014.4 |
| 20260506004401 | 65 | 167 | 7.0 | 11.0 | 0.00 | 0.13 | 0.07 | 49 | 1014.4 |
| 20260506003901 | 65 | 163 | 6.0 | 10.0 | 0.00 | 0.13 | 0.07 | 51 | 1014.5 |
| 20260506003401 | 65 | 139 | 6.0 | 13.0 | 0.00 | 0.13 | 0.07 | 52 | 1014.5 |
| 20260506002901 | 65 | 149 | 7.0 | 13.0 | 0.00 | 0.13 | 0.07 | 48 | 1014.5 |
| 20260506002403 | 65 | 140 | 6.0 | 12.0 | 0.00 | 0.13 | 0.07 | 47 | 1014.4 |
| 20260506001954 | 66 | 103 | 4.0 | 12.0 | 0.00 | 0.13 | 0.07 | 47 | 1014.5 |
| 20260506001938 | 66 | 104 | 6.0 | 12.0 | 0.00 | 0.13 | 0.07 | 50 | 1014.4 |
| 20260506001134 | 66 | 188 | 4.0 | 7.0 | 0.00 | 0.13 | 0.07 | 47 | 1014.5 |
| 20260506000401 | 66 | 146 | 5.0 | 9.0 | 0.00 | 0.13 | 0.07 | 46 | 1014.5 |
| 20260506000152 | 65 | 109 | 6.0 | 10.0 | 0.00 | 0.13 | 0.07 | 49 | 1014.5 |
| 20260505235401 | 66 | 115 | 5.0 | 10.0 | 0.00 | 0.13 | 0.07 | 48 | 1014.6 |
| 20260505234902 | 66 | 134 | 3.0 | 8.0 | 0.00 | 0.13 | 0.07 | 50 | 1014.6 |
| 20260505234402 | 65 | 178 | 5.0 | 9.0 | 0.00 | 0.13 | 0.07 | 51 | 1014.5 |
| 20260505234158 | 66 | 101 | 4.0 | 9.0 | 0.00 | 0.14 | 0.07 | 50 | 1014.5 |
| 20260505233403 | 69 | 67 | 4.0 | 8.0 | 0.00 | 0.14 | 0.07 | 49 | 1014.5 |
| 20260505232850 | 69 | 44 | 5.0 | 11.0 | 0.00 | 0.14 | 0.07 | 54 | 1014.6 |
| 20260505232344 | 67 | 92 | 3.0 | 11.0 | 0.00 | 0.14 | 0.07 | 49 | 1014.7 |
| 20260505231838 | 67 | 303 | 3.0 | 8.0 | 0.00 | 0.14 | 0.07 | 49 | 1014.8 |
| 20260505231331 | 64 | 10 | 3.0 | 8.0 | 0.00 | 0.14 | 0.07 | 48 | 1014.7 |
| 20260505230829 | 66 | 213 | 3.0 | 8.0 | 0.00 | 0.14 | 0.07 | 50 | 1014.7 |
| 20260505230320 | 65 | 229 | 3.0 | 8.0 | 0.00 | 0.14 | 0.07 | 48 | 1014.8 |
| 20260505225814 | 65 | 147 | 5.0 | 9.0 | 0.00 | 0.14 | 0.07 | 48 | 1014.9 |
| 20260505225308 | 65 | 155 | 4.0 | 9.0 | 0.00 | 0.14 | 0.07 | 52 | 1014.9 |
| 20260505225100 | 67 | 101 | 2.0 | 7.0 | 0.00 | 0.14 | 0.07 | 52 | 1015.0 |
| 20260505224600 | 65 | 333 | 1.0 | 4.0 | 0.00 | 0.14 | 0.07 | 57 | 1015.0 |
| 20260505224059 | 65 | 249 | 2.0 | 5.0 | 0.00 | 0.14 | 0.07 | 49 | 1015.2 |
| 20260505223307 | 66 | 339 | 3.0 | 6.0 | 0.00 | 0.14 | 0.07 | 48 | 1015.0 |
| 20260505222808 | 69 | 355 | 4.0 | 7.0 | 0.00 | 0.14 | 0.07 | 44 | 1015.2 |
| 20260505222603 | 71 | 59 | 4.0 | 7.0 | 0.00 | 0.14 | 0.07 | 54 | 1015.3 |
| 20260505222059 | 69 | 67 | 3.0 | 6.0 | 0.00 | 0.14 | 0.07 | 54 | 1015.3 |
| 20260505221305 | 69 | 5 | 4.0 | 8.0 | 0.00 | 0.14 | 0.07 | 55 | 1015.3 |
| 20260505221102 | 65 | 93 | 4.0 | 8.0 | 0.00 | 0.14 | 0.07 | 54 | 1015.3 |
| 20260505220302 | 63 | 155 | 5.0 | 9.0 | 0.00 | 0.14 | 0.07 | 55 | 1015.4 |
| 20260505215803 | 63 | 157 | 5.0 | 10.0 | 0.00 | 0.14 | 0.07 | 54 | 1015.4 |
| 20260505215600 | 63 | 132 | 3.0 | 10.0 | 0.00 | 0.14 | 0.07 | 61 | 1015.4 |
| 20260505214804 | 63 | 245 | 2.0 | 5.0 | 0.00 | 0.14 | 0.07 | 62 | 1015.5 |
| 20260505214302 | 64 | 313 | 4.0 | 9.0 | 0.00 | 0.14 | 0.07 | 53 | 1015.6 |
| 20260505213846 | 62 | 105 | 4.0 | 10.0 | 0.00 | 0.15 | 0.07 | 62 | 1015.7 |
| 20260505213834 | 67 | 13 | 5.0 | 10.0 | 0.00 | 0.14 | 0.07 | 60 | 1015.7 |
| 20260505212851 | 62 | 189 | 4.0 | 12.0 | 0.00 | 0.15 | 0.07 | 57 | 1015.9 |
| 20260505212836 | 61 | 85 | 4.0 | 12.0 | 0.00 | 0.15 | 0.07 | 62 | 1015.9 |
| 20260505211801 | 61 | 82 | 4.0 | 10.0 | 0.00 | 0.15 | 0.07 | 63 | 1016.0 |
| 20260505211301 | 63 | 134 | 5.0 | 10.0 | 0.00 | 0.15 | 0.07 | 65 | 1016.0 |
| 20260505210801 | 61 | 106 | 5.0 | 9.0 | 0.00 | 0.15 | 0.07 | 65 | 1016.1 |
| 20260505210301 | 63 | 128 | 6.0 | 10.0 | 0.00 | 0.15 | 0.07 | 67 | 1016.1 |
| 20260505205800 | 62 | 103 | 4.0 | 10.0 | 0.00 | 0.15 | 0.07 | 61 | 1016.2 |
| 20260505205305 | 61 | 190 | 3.0 | 7.0 | 0.00 | 0.15 | 0.07 | 65 | 1016.2 |
| 20260505204802 | 61 | 161 | 3.0 | 8.0 | 0.00 | 0.15 | 0.07 | 72 | 1016.2 |
| 20260505204301 | 61 | 182 | 4.0 | 10.0 | 0.00 | 0.15 | 0.07 | 65 | 1016.2 |
| 20260505203802 | 60 | 138 | 5.0 | 10.0 | 0.00 | 0.16 | 0.07 | 62 | 1016.3 |
| 20260505203300 | 58 | 57 | 5.0 | 9.0 | 0.00 | 0.16 | 0.07 | 66 | 1016.2 |
| 20260505202800 | 59 | 180 | 5.0 | 12.0 | 0.00 | 0.16 | 0.07 | 65 | 1016.2 |
| 20260505202301 | 58 | 132 | 6.0 | 12.0 | 0.00 | 0.16 | 0.07 | 70 | 1016.3 |
| 20260505201802 | 60 | 150 | 5.0 | 10.0 | 0.00 | 0.16 | 0.07 | 67 | 1016.2 |
| 20260505201302 | 57 | 139 | 4.0 | 9.0 | 0.00 | 0.16 | 0.07 | 67 | 1016.3 |
| 20260505200801 | 57 | 170 | 5.0 | 10.0 | 0.00 | 0.16 | 0.07 | 70 | 1016.3 |
| 20260505200303 | 56 | 184 | 6.0 | 11.0 | 0.00 | 0.17 | 0.07 | 78 | 1016.6 |
| 20260505195801 | 55 | 199 | 6.0 | 12.0 | 0.00 | 0.17 | 0.07 | 73 | 1016.4 |
| 20260505195557 | 55 | 146 | 5.0 | 12.0 | 0.00 | 0.17 | 0.07 | 76 | 1016.6 |
| 20260505194800 | 54 | 185 | 5.0 | 9.0 | 0.00 | 0.17 | 0.07 | 74 | 1016.6 |
| 20260505194301 | 55 | 163 | 5.0 | 11.0 | 0.00 | 0.17 | 0.07 | 73 | 1016.6 |
| 20260505193802 | 55 | 128 | 6.0 | 11.0 | 0.00 | 0.17 | 0.07 | 72 | 1016.7 |
| 20260505193300 | 55 | 172 | 6.0 | 11.0 | 0.00 | 0.18 | 0.07 | 72 | 1016.6 |
| 20260505192801 | 53 | 182 | 6.0 | 11.0 | 0.00 | 0.18 | 0.07 | 76 | 1016.4 |
| 20260505192305 | 53 | 138 | 5.0 | 11.0 | 0.00 | 0.18 | 0.07 | 78 | 1016.4 |
| 20260505191802 | 53 | 144 | 6.0 | 11.0 | 0.00 | 0.18 | 0.07 | 74 | 1016.6 |
| 20260505191556 | 53 | 127 | 7.0 | 12.0 | 0.00 | 0.18 | 0.07 | 76 | 1016.6 |
| 20260505190802 | 52 | 119 | 7.0 | 12.0 | 0.00 | 0.18 | 0.07 | 76 | 1016.3 |
| 20260505190301 | 53 | 161 | 6.0 | 12.0 | 0.00 | 0.18 | 0.07 | 77 | 1016.4 |
| 20260505185857 | 51 | 150 | 8.0 | 13.0 | 0.00 | 0.18 | 0.07 | 76 | 1016.4 |
| 20260505185840 | 52 | 125 | 7.0 | 13.0 | 0.00 | 0.18 | 0.07 | 80 | 1016.3 |
| 20260505184801 | 52 | 167 | 7.0 | 13.0 | 0.00 | 0.18 | 0.07 | 81 | 1016.3 |
| 20260505184302 | 51 | 138 | 7.0 | 13.0 | 0.00 | 0.18 | 0.07 | 79 | 1016.4 |
| 20260505183802 | 52 | 142 | 6.0 | 12.0 | 0.00 | 0.18 | 0.07 | 78 | 1016.3 |
| 20260505183300 | 51 | 146 | 5.0 | 10.0 | 0.00 | 0.18 | 0.07 | 81 | 1016.3 |
| 20260505183057 | 50 | 146 | 6.0 | 10.0 | 0.00 | 0.18 | 0.07 | 78 | 1016.4 |
| 20260505182305 | 50 | 146 | 6.0 | 10.0 | 0.00 | 0.18 | 0.07 | 78 | 1016.4 |
| 20260505182057 | 50 | 94 | 5.0 | 9.0 | 0.00 | 0.18 | 0.07 | 83 | 1016.3 |
| 20260505181555 | 50 | 133 | 5.0 | 9.0 | 0.00 | 0.18 | 0.07 | 80 | 1016.3 |
| 20260505181051 | 50 | 137 | 7.0 | 13.0 | 0.00 | 0.18 | 0.07 | 83 | 1016.3 |
| 20260505180301 | 49 | 146 | 8.0 | 13.0 | 0.00 | 0.18 | 0.07 | 83 | 1016.2 |
| 20260505175801 | 49 | 113 | 7.0 | 11.0 | 0.00 | 0.18 | 0.07 | 81 | 1016.1 |
| 20260505175305 | 49 | 122 | 6.0 | 11.0 | 0.00 | 0.18 | 0.07 | 86 | 1016.0 |
| 20260505174802 | 48 | 138 | 7.0 | 10.0 | 0.00 | 0.18 | 0.07 | 84 | 1016.0 |
| 20260505174302 | 47 | 131 | 7.0 | 10.0 | 0.00 | 0.18 | 0.07 | 83 | 1016.0 |
| 20260505173803 | 47 | 129 | 8.0 | 10.0 | 0.00 | 0.18 | 0.07 | 85 | 1016.0 |
| 20260505173608 | 47 | 131 | 6.0 | 10.0 | 0.00 | 0.18 | 0.07 | 84 | 1015.9 |
| 20260505172801 | 47 | 116 | 5.0 | 9.0 | 0.00 | 0.18 | 0.07 | 87 | 1015.7 |
| 20260505172305 | 47 | 148 | 6.0 | 9.0 | 0.00 | 0.18 | 0.07 | 88 | 1015.7 |
| 20260505171801 | 47 | 113 | 5.0 | 9.0 | 0.00 | 0.18 | 0.07 | 85 | 1015.6 |
| 20260505171603 | 47 | 174 | 4.0 | 7.0 | 0.00 | 0.18 | 0.07 | 86 | 1015.5 |
| 20260505170802 | 47 | 140 | 4.0 | 7.0 | 0.00 | 0.18 | 0.07 | 88 | 1015.5 |
| 20260505170607 | 46 | 136 | 4.0 | 7.0 | 0.00 | 0.18 | 0.07 | 87 | 1015.5 |
| 20260505165802 | 47 | 129 | 4.0 | 7.0 | 0.00 | 0.18 | 0.07 | 87 | 1015.5 |
| 20260505165301 | 46 | 140 | 5.0 | 8.0 | 0.00 | 0.18 | 0.07 | 87 | 1015.5 |
| 20260505165057 | 45 | 134 | 5.0 | 8.0 | 0.00 | 0.18 | 0.07 | 87 | 1015.5 |
| 20260505164302 | 46 | 120 | 5.0 | 8.0 | 0.00 | 0.18 | 0.07 | 87 | 1015.4 |
| 20260505164103 | 47 | 88 | 4.0 | 8.0 | 0.00 | 0.18 | 0.07 | 90 | 1015.4 |
| 20260505163302 | 46 | 114 | 3.0 | 4.0 | 0.00 | 0.18 | 0.07 | 90 | 1015.3 |
| 20260505162758 | 45 | 122 | 3.0 | 4.0 | 0.00 | 0.18 | 0.07 | 88 | 1015.4 |
| 20260505162251 | 46 | 100 | 2.0 | 4.0 | 0.00 | 0.18 | 0.07 | 90 | 1015.3 |
| 20260505161746 | 46 | 83 | 2.0 | 4.0 | 0.00 | 0.18 | 0.07 | 90 | 1015.2 |
| 20260505161542 | 44 | 166 | 2.0 | 4.0 | 0.00 | 0.18 | 0.07 | 87 | 1015.2 |
| 20260505160740 | 45 | 166 | 2.0 | 4.0 | 0.00 | 0.18 | 0.07 | 89 | 1015.0 |
| 20260505160640 | 44 | 184 | 2.0 | 5.0 | 0.00 | 0.18 | 0.07 | 89 | 1015.0 |
| 20260505160634 | 44 | 169 | 2.0 | 5.0 | 0.00 | 0.18 | 0.07 | 89 | 1015.0 |
| 20260505153235 | 44 | 221 | 4.0 | 7.0 | 0.01 | 0.18 | 0.07 | 89 | 1015.0 |
| 20260505152734 | 44 | 213 | 4.0 | 8.0 | 0.01 | 0.18 | 0.07 | 89 | 1014.9 |
| 20260505152236 | 44 | 244 | 4.0 | 8.0 | 0.01 | 0.18 | 0.07 | 90 | 1014.8 |
| 20260505151735 | 44 | 234 | 3.0 | 7.0 | 0.01 | 0.18 | 0.07 | 90 | 1014.8 |
| 20260505151234 | 44 | 222 | 3.0 | 6.0 | 0.01 | 0.18 | 0.07 | 90 | 1014.9 |
| 20260505150731 | 44 | 170 | 4.0 | 7.0 | 0.01 | 0.18 | 0.07 | 91 | 1014.8 |
| 20260505150530 | 44 | 185 | 4.0 | 7.0 | 0.01 | 0.18 | 0.07 | 91 | 1014.8 |
| 20260505140450 | 44 | 227 | 2.0 | 4.0 | 0.00 | 0.17 | 0.06 | 92 | 1014.0 |
| 20260505130300 | 43 | 176 | 3.0 | 6.0 | 0.01 | 0.17 | 0.06 | 92 | 1013.2 |
| 20260505130243 | 43 | 178 | 3.0 | 6.0 | 0.01 | 0.17 | 0.06 | 92 | 1013.1 |
| 20260505124748 | 43 | 215 | 3.0 | 4.0 | 0.01 | 0.17 | 0.06 | 92 | 1013.2 |
| 20260505124734 | 43 | 215 | 2.0 | 4.0 | 0.01 | 0.17 | 0.06 | 92 | 1013.2 |
| 20260505123658 | 44 | 215 | 3.0 | 5.0 | 0.01 | 0.17 | 0.05 | 92 | 1013.1 |
| 20260505123447 | 43 | 199 | 2.0 | 5.0 | 0.00 | 0.16 | 0.05 | 92 | 1013.0 |
| 20260505122942 | 43 | 219 | 2.0 | 4.0 | 0.00 | 0.16 | 0.05 | 92 | 1013.0 |
| 20260505122438 | 43 | 219 | 2.0 | 3.0 | 0.00 | 0.16 | 0.05 | 92 | 1013.0 |
| 20260505121652 | 43 | 219 | 2.0 | 3.0 | 0.00 | 0.16 | 0.05 | 92 | 1013.0 |
| 20260505121436 | 43 | 184 | 2.0 | 3.0 | 0.00 | 0.16 | 0.05 | 92 | 1013.0 |
| 20260505120648 | 43 | 184 | 1.0 | 3.0 | 0.00 | 0.16 | 0.05 | 92 | 1013.0 |
| 20260505120435 | 43 | 184 | 2.0 | 4.0 | 0.00 | 0.16 | 0.05 | 92 | 1013.0 |
| 20260505115939 | 43 | 184 | 2.0 | 5.0 | 0.00 | 0.16 | 0.05 | 92 | 1012.8 |
| 20260505115148 | 43 | 156 | 2.0 | 5.0 | 0.00 | 0.16 | 0.05 | 92 | 1012.8 |
| 20260505114933 | 43 | 156 | 2.0 | 5.0 | 0.00 | 0.16 | 0.05 | 92 | 1012.7 |
| 20260505114150 | 43 | 156 | 2.0 | 5.0 | 0.00 | 0.16 | 0.05 | 92 | 1012.8 |
| 20260505113647 | 43 | 156 | 2.0 | 5.0 | 0.00 | 0.16 | 0.05 | 92 | 1012.7 |
| 20260505113145 | 43 | 156 | 2.0 | 5.0 | 0.01 | 0.16 | 0.05 | 92 | 1012.8 |
| 20260505112645 | 43 | 167 | 3.0 | 5.0 | 0.01 | 0.16 | 0.05 | 92 | 1012.8 |
| 20260505112144 | 43 | 206 | 3.0 | 5.0 | 0.01 | 0.16 | 0.05 | 92 | 1013.0 |
| 20260505111645 | 43 | 201 | 4.0 | 5.0 | 0.01 | 0.16 | 0.05 | 92 | 1013.0 |
| 20260505111145 | 43 | 215 | 4.0 | 5.0 | 0.01 | 0.16 | 0.05 | 92 | 1012.8 |
| 20260505110642 | 43 | 226 | 3.0 | 5.0 | 0.01 | 0.16 | 0.05 | 92 | 1012.8 |
| 20260505110548 | 43 | 191 | 2.0 | 6.0 | 0.01 | 0.16 | 0.05 | 92 | 1013.1 |
| 20260505110226 | 43 | 217 | 2.0 | 4.0 | 0.01 | 0.16 | 0.05 | 92 | 1013.1 |
| 20260505102135 | 43 | 142 | 2.0 | 5.0 | 0.01 | 0.15 | 0.04 | 92 | 1013.0 |
| 20260505101636 | 43 | 178 | 2.0 | 4.0 | 0.01 | 0.15 | 0.04 | 92 | 1013.0 |
| 20260505101134 | 43 | 184 | 2.0 | 4.0 | 0.01 | 0.15 | 0.04 | 92 | 1013.1 |
| 20260505100631 | 43 | 176 | 2.0 | 4.0 | 0.01 | 0.15 | 0.04 | 92 | 1013.2 |
| 20260505100132 | 43 | 176 | 3.0 | 5.0 | 0.01 | 0.15 | 0.04 | 92 | 1013.2 |
| 20260505095628 | 43 | 210 | 3.0 | 5.0 | 0.01 | 0.15 | 0.04 | 92 | 1013.3 |
| 20260505095122 | 43 | 210 | 2.0 | 4.0 | 0.01 | 0.15 | 0.04 | 92 | 1013.5 |
| 20260505094615 | 43 | 211 | 3.0 | 5.0 | 0.02 | 0.15 | 0.03 | 92 | 1013.3 |
| 20260505094206 | 43 | 239 | 1.0 | 3.0 | 0.01 | 0.14 | 0.03 | 92 | 1013.4 |
| 20260505094149 | 43 | 212 | 2.0 | 5.0 | 0.01 | 0.14 | 0.03 | 92 | 1013.3 |
| 20260505093108 | 43 | 239 | 0.0 | 3.0 | 0.01 | 0.14 | 0.03 | 92 | 1013.3 |
| 20260505092605 | 43 | 239 | 0.0 | 1.0 | 0.01 | 0.14 | 0.03 | 92 | 1013.5 |
| 20260505092103 | 43 | 239 | 0.0 | 1.0 | 0.01 | 0.14 | 0.03 | 92 | 1013.7 |
| 20260505091602 | 43 | 239 | 1.0 | 3.0 | 0.01 | 0.14 | 0.03 | 92 | 1013.5 |
| 20260505091102 | 43 | 239 | 2.0 | 3.0 | 0.01 | 0.14 | 0.03 | 92 | 1013.4 |
| 20260505090601 | 43 | 239 | 2.0 | 4.0 | 0.02 | 0.14 | 0.03 | 92 | 1013.4 |
| 20260505085600 | 43 | 239 | 1.0 | 3.0 | 0.02 | 0.14 | 0.03 | 92 | 1013.7 |
| 20260505085102 | 43 | 239 | 1.0 | 3.0 | 0.02 | 0.14 | 0.03 | 92 | 1013.8 |
| 20260505084602 | 44 | 239 | 2.0 | 3.0 | 0.01 | 0.13 | 0.02 | 91 | 1014.0 |
| 20260505084102 | 44 | 239 | 1.0 | 3.0 | 0.01 | 0.13 | 0.02 | 92 | 1014.1 |
| 20260505083602 | 44 | 239 | 2.0 | 6.0 | 0.01 | 0.13 | 0.02 | 91 | 1014.1 |
| 20260505083101 | 43 | 239 | 3.0 | 6.0 | 0.01 | 0.13 | 0.02 | 91 | 1013.9 |
| 20260505082848 | 44 | 263 | 2.0 | 4.0 | 0.01 | 0.13 | 0.02 | 91 | 1013.9 |
| 20260505082101 | 43 | 259 | 1.0 | 4.0 | 0.01 | 0.13 | 0.02 | 91 | 1013.8 |
| 20260505081602 | 43 | 170 | 0.0 | 2.0 | 0.02 | 0.13 | 0.02 | 91 | 1013.5 |
| 20260505081102 | 44 | 170 | 0.0 | 1.0 | 0.02 | 0.13 | 0.02 | 91 | 1013.7 |
| 20260505080846 | 44 | 170 | 0.0 | 2.0 | 0.01 | 0.12 | 0.01 | 91 | 1013.7 |
| 20260505080049 | 44 | 170 | 1.0 | 2.0 | 0.01 | 0.12 | 0.01 | 91 | 1013.8 |
| 20260505075544 | 43 | 170 | 2.0 | 5.0 | 0.01 | 0.12 | 0.01 | 91 | 1013.7 |
| 20260505075039 | 43 | 170 | 3.0 | 6.0 | 0.01 | 0.12 | 0.01 | 91 | 1013.8 |
| 20260505074538 | 43 | 157 | 3.0 | 6.0 | 0.01 | 0.12 | 0.01 | 91 | 1013.8 |
| 20260505074038 | 44 | 215 | 2.0 | 4.0 | 0.01 | 0.12 | 0.01 | 91 | 1013.9 |
| 20260505073538 | 44 | 257 | 1.0 | 3.0 | 0.01 | 0.12 | 0.01 | 91 | 1014.1 |
| 20260505073038 | 44 | 257 | 2.0 | 6.0 | 0.01 | 0.12 | 0.01 | 91 | 1014.4 |
| 20260505072821 | 44 | 257 | 4.0 | 6.0 | 0.02 | 0.12 | 0.01 | 91 | 1014.2 |
| 20260505072031 | 44 | 262 | 3.0 | 6.0 | 0.02 | 0.12 | 0.00 | 91 | 1014.2 |
| 20260505071529 | 44 | 253 | 3.0 | 4.0 | 0.01 | 0.11 | 0.00 | 90 | 1014.1 |